Location: Góry Miechowskie
(50.3599°N, 20.1803°E)
Time: 23:39:59
(UTC+00:00)

Cosmos 1869 - Pass Details

Date: 19 September 2024
Orbit: 484 x 518 km, 82.5° (Epoch: 06 October)

Event Time Altitude Azimuth Distance (km) Brightness Sun altitude
Exits shadow 00:16:34 14° 30° (NNE) 1,469 6.2 -33.7°
Drops below altitude 10° 00:17:15 10° 25° (NNE) 1,729 6.7 -33.7°
Sets 00:19:28 0° 17° (NNE) 2,612 7.8 -33.5°
